GW1647 Weather Reports


time (UTC)temp
C
wind
direction
speed
KPH
gust
KPH
rain 1hr
cm
rain 24hr
cm
rain mn
cm
humidity
%
barometer
mb
20260504234557 19 343 14.5 29.0 0.00 0.00 0.00 33 1005.8
20260504233059 20 5 19.3 40.2 0.00 0.00 0.00 31 1005.6
20260504231555 21 7 16.1 45.1 0.00 0.00 0.00 30 1005.3
20260504230057 21 325 14.5 40.2 0.00 0.00 0.00 29 1004.9
20260504224556 22 338 12.9 37.0 0.00 0.00 0.00 29 1004.5
20260504223120 22 321 16.1 32.2 0.00 0.00 0.00 28 1004.4
20260504221600 22 340 11.3 40.2 0.00 0.00 0.00 28 1004.0
20260504220058 23 350 14.5 35.4 0.00 0.00 0.00 28 1003.9
20260504214557 23 354 9.7 32.2 0.00 0.00 0.00 27 1003.9
20260504213106 24 340 14.5 29.0 0.00 0.00 0.00 26 1003.7
20260504211652 24 5 11.3 32.2 0.00 0.00 0.00 27 1003.5
20260504210058 25 327 3.2 24.1 0.00 0.00 0.00 29 1003.2
20260504204558 25 5 8.0 22.5 0.00 0.00 0.00 29 1003.2
20260504203102 25 3 9.7 30.6 0.00 0.00 0.00 30 1003.3
20260504201611 25 340 12.9 30.6 0.00 0.00 0.00 32 1003.2
20260504200057 25 340 6.4 27.4 0.00 0.00 0.00 33 1003.2
20260504194558 25 336 6.4 32.2 0.00 0.00 0.00 32 1003.2
20260504193107 25 326 11.3 27.4 0.00 0.00 0.00 33 1002.9
20260504191611 26 338 8.0 27.4 0.00 0.00 0.00 33 1002.8
20260504190106 25 344 12.9 35.4 0.00 0.00 0.00 34 1002.7
20260504184556 26 324 11.3 27.4 0.00 0.00 0.00 32 1002.5
20260504183056 26 1 8.0 24.1 0.00 0.00 0.00 32 1002.5
20260504181601 26 328 8.0 24.1 0.00 0.00 0.00 29 1002.4
20260504180107 26 0 9.7 27.4 0.00 0.00 0.00 30 1002.4
20260504174557 26 311 6.4 27.4 0.00 0.00 0.00 30 1002.3
20260504173057 26 0 6.4 25.7 0.00 0.00 0.00 31 1002.4
20260504171556 25 293 6.4 29.0 0.00 0.00 0.00 32 1002.5
20260504081605 14 0 1.6 9.7 0.00 0.00 0.00 50 1004.1
20260504044556 17 0 1.6 4.8 0.00 0.00 0.00 40 1006.9
20260504043101 17 0 0.0 3.2 0.00 0.00 0.00 41 1007.1
20260504041558 17 283 0.0 3.2 0.00 0.00 0.00 41 1007.2
20260504040132 17 0 0.0 0.0 0.00 0.00 0.00 41 1007.3
20260504034601 17 0 0.0 0.0 0.00 0.00 0.00 41 1007.7
20260504033059 17 0 0.0 0.0 0.00 0.00 0.00 41 1007.9
20260504031606 18 0 0.0 0.0 0.00 0.00 0.00 41 1007.9
20260504030055 18 0 0.0 0.0 0.00 0.00 0.00 41 1007.9
20260504024603 19 0 0.0 0.0 0.00 0.00 0.00 38 1008.0
20260504023058 19 0 0.0 1.6 0.00 0.00 0.00 39 1008.0
20260504021557 20 0 0.0 0.0 0.00 0.00 0.00 36 1008.2
20260504020109 20 0 0.0 0.0 0.00 0.00 0.00 35 1008.4
20260504014556 21 0 0.0 0.0 0.00 0.00 0.00 34 1008.5
20260504013053 21 0 0.0 1.6 0.00 0.00 0.00 33 1008.4
20260504011553 21 0 0.0 0.0 0.00 0.00 0.00 32 1008.5
20260504010056 21 0 0.0 0.0 0.00 0.00 0.00 32 1008.6
20260504004555 22 0 0.0 6.4 0.00 0.00 0.00 31 1008.7
20260504003054 22 300 0.0 4.8 0.00 0.00 0.00 31 1008.8
20260504001556 22 290 0.0 9.7 0.00 0.00 0.00 30 1008.8
20260504000101 22 280 0.0 4.8 0.00 0.00 0.00 30 1009.1